Flag for Brazil Weather past 2 weeks in Porto Alegre, Rio Grande do Sul, Brazil

Now
63 °F

Clear.


Feels Like: 63 °F
Forecast: 61 / 72 °F
Wind: 7 mph from East

Location: Porto Alegre Aero-Porto

Current Time: Aug 30, 2014 at 10:11:26 PM

Latest Report: Aug 30, 2014 at 10:00 PM


Visibility: 10 mi

Pressure: 29.92 "Hg

Humidity: 83%

Dew point: 57 °F

Location of Porto AlegreLocation

Historic Weather in Porto Alegre — Graph

°F

Porto Alegre temperature yesterday

Maximum temperature yesterday: 70 °F (at 2:00 PM)
Minimum temperature yesterday: 45 °F (at 3:00 AM)
Average temperature yesterday: 56 °F

Past Weeks' High & Low Weather Summary

 TemperatureHumidityPressure
High95 °F (Aug 24, 3:00 PM)100% (Aug 16, 9:00 AM)30.30 "Hg (Aug 16, 9:00 AM)
Low43 °F (Aug 28, 3:00 AM)25% (Aug 24, 3:00 PM)29.62 "Hg (Aug 24, 3:00 PM)
Average62 °F78%30.05 "Hg
* Reported Aug 15 9:00 PM — Aug 30 9:00 PM, Porto Alegre, Weather by CustomWeather, © 2014

Note: Actual official high and low records may vary slightly from our data, if they occured in-between our weather recording intervals... More about our weather records

Advertising

Porto Alegre weather history for previous 24 hours

 ConditionsComfort  
Time TempWeatherWind HumidityBarometerVisibility
9:00 PM
Aug 30
63 °FClear.9 mph83%29.92 "Hg10 mi
8:00 PM64 °FClear.9 mph78%29.95 "Hg10 mi
7:00 PM68 °FClear.10 mph73%29.95 "Hg10 mi
6:00 PM72 °FClear.9 mph65%29.95 "Hg10 mi
5:00 PM75 °FSunny.13 mph57%29.95 "Hg10 mi
4:00 PM77 °FSunny.12 mph51%29.95 "Hg10 mi
3:00 PM77 °FPassing clouds.8 mph51%29.98 "HgN/A
2:00 PM77 °FPassing clouds.7 mph47%30.01 "HgN/A
1:00 PM75 °FSunny.2 mph47%30.04 "Hg10 mi
12:00 PM72 °FClear.3 mph53%30.07 "Hg5 mi
11:00 AM68 °FHaze.3 mph60%30.09 "Hg3 mi
10:00 AM61 °FHaze.3 mph72%30.09 "Hg2 mi
9:00 AM55 °FFog.No wind88%30.09 "Hg2 mi
8:00 AM50 °FFog.2 mph100%N/A1 mi
7:00 AM46 °FFog.3 mph100%N/A1 mi
6:00 AM48 °FFog.No wind100%30.07 "Hg1 mi
5:00 AM50 °FFog.No wind100%30.04 "Hg1 mi
4:00 AM50 °FFog.No wind94%30.04 "Hg1 mi
3:00 AM50 °FFog.2 mph100%30.07 "Hg3 mi
2:00 AM54 °FClear.3 mph94%30.07 "Hg10 mi
1:00 AM54 °FClear.No wind94%30.09 "Hg10 mi
12:00 AM54 °FClear.5 mph94%30.09 "Hg10 mi
11:00 PM
Aug 29
57 °FClear.9 mph82%30.09 "Hg10 mi
10:00 PM57 °FClear.8 mph82%30.09 "Hg10 mi
Weather by CustomWeather, © 2014

See weather overviewHow to use our weather pages